date,down_hole_presure,down_hole_temperature,production_pipe_pressure,choke_size_pct,well_head_presure,well_head_temperature,choke_size_pressure,oil
13/07/2008,260.867,103.293,160.152,21.053,100.715,52.382,69.539,1735.26
14/07/2008,256.248,104.018,156.65,27.223,99.598,71.115,68.016,592.36
15/07/2008,254.983,103.967,156.333,27.278,98.65,67.591,66.949,2532.21
16/07/2008,251.476,104.211,155.817,30.651,95.659,73.782,63.664,3030.71
17/07/2008,249.346,104.339,155.761,32.563,93.585,78.035,61.338,3288.08
18/07/2008,251.502,104.334,155.279,30.052,96.223,75.75,64.305,2780.06
19/07/2008,251.509,104.354,155.36,30.084,96.149,75.335,64.164,2774.38
20/07/2008,251.458,104.378,155.352,30.118,96.106,75.617,64.128,2791.01
21/07/2008,251.724,104.399,155.234,29.831,96.49,76.078,64.56,2743.1
22/07/2008,251.858,104.407,155.172,29.748,96.686,77.017,64.77,2717.44
23/07/2008,251.915,104.43,155.182,29.668,96.734,77.137,64.775,2745.51
24/07/2008,251.851,104.441,155.193,29.786,96.658,76.883,64.949,2762.59
25/07/2008,251.87,104.459,155.582,29.722,96.288,71.983,64.82,2763.68
26/07/2008,251.855,104.472,155.417,29.787,96.437,73.848,64.94,2759.3
27/07/2008,251.915,104.469,155.416,29.783,96.499,74.985,65.006,2732.34
28/07/2008,251.951,104.496,155.368,29.807,96.583,75.898,65.069,2762.74
29/07/2008,252.589,104.497,155.282,28.814,97.307,75.369,65.835,2670.67
30/07/2008,246.954,104.611,157.469,35.302,89.486,77.973,57.458,3553.37
31/07/2008,247.192,104.67,157.411,35.465,89.781,77.685,57.77,3550.27
01/08/2008,250.435,104.621,155.986,32.309,94.45,76.96,62.753,3118.92
02/08/2008,250.541,104.62,160.501,30.761,90.04,74.146,59.902,3057.91
03/08/2008,250.443,104.629,156.152,32.197,94.291,75.897,63.265,3111.44
04/08/2008,250.179,104.558,155.993,32.186,94.186,76.065,62.485,3019.3
05/08/2008,250.292,104.644,156.185,32.309,94.106,75.514,62.394,3135.89
06/08/2008,251.121,104.63,156.136,29.153,94.985,77.05,63.305,911.43
08/08/2008,259.488,103.413,161.462,17.481,98.026,43.066,68.702,724.97
09/08/2008,247.845,104.611,157.202,34.384,90.643,76.168,58.424,3821.01
10/08/2008,244.981,104.701,157.209,36.27,87.773,78.811,55.201,4148.94
11/08/2008,244.312,104.716,156.917,36.243,87.395,79.229,54.723,4118.03
12/08/2008,244.052,104.717,156.772,36.02,87.281,77.396,54.619,4126.78
13/08/2008,243.907,104.711,156.307,35.575,87.599,77.916,55.024,3941.15
14/08/2008,244.31,104.685,156.2,34.364,88.11,77.269,55.653,3676.28
15/08/2008,244.306,104.693,155.468,34.165,88.838,78.998,56.165,3603.11
16/08/2008,242.792,104.701,155.86,35.469,86.932,75.759,54.478,3578.92
17/08/2008,241.218,104.708,155.74,36.304,85.478,77.232,52.842,3723.19
18/08/2008,240.453,104.708,155.209,36.169,85.244,79.482,52.67,3666.19
19/08/2008,239.369,104.708,154.996,36.475,84.373,80.007,51.782,3719.87
20/08/2008,238.403,104.716,154.734,36.583,83.668,80.074,51.031,4032.64
21/08/2008,237.672,104.728,154.697,36.324,82.975,78.764,50.387,2911.25
22/08/2008,255.611,100.776,255.611,35.124,0.0,26.44,0.022,2767.523
23/08/2008,256.769,99.632,256.749,33.925,0.021,17.538,0.004,2623.796
24/08/2008,257.789,99.116,257.789,32.725,0.001,15.086,0.024,2480.069
25/08/2008,258.763,98.786,258.763,31.525,0.004,15.512,0.03,2336.342
26/08/2008,259.726,98.553,259.726,30.326,0.008,16.122,0.042,2192.615
27/08/2008,260.339,98.355,260.328,29.126,0.011,15.681,0.029,2048.888
28/08/2008,260.32,98.178,224.465,27.927,35.856,22.396,35.827,1905.161
29/08/2008,260.273,98.053,160.482,26.727,99.791,19.003,99.756,1761.434
30/08/2008,260.24,97.959,172.766,25.528,87.474,15.701,87.384,1617.707
31/08/2008,252.346,104.092,156.706,24.328,95.64,58.451,63.534,1473.98
01/09/2008,260.716,99.511,159.046,25.277,101.67,18.113,69.97,1409.71
02/09/2008,252.326,104.235,156.29,26.226,96.036,63.574,63.784,1345.44
03/09/2008,252.193,104.541,154.878,26.846,97.316,71.788,65.015,2164.78
04/09/2008,252.293,104.58,154.812,27.028,97.481,73.262,65.056,2186.74
05/09/2008,252.369,104.605,155.208,27.189,97.161,70.383,64.947,2230.26
06/09/2008,252.796,104.615,155.241,26.67,97.555,72.053,65.124,1442.19
07/09/2008,262.174,100.363,261.857,26.366,0.317,21.409,0.292,1585.995
08/09/2008,252.92,104.349,156.048,26.062,96.873,67.99,64.602,1729.8
09/09/2008,252.37,104.614,155.039,27.525,97.331,72.459,65.488,2272.65
10/09/2008,241.049,104.808,158.852,39.69,82.197,77.586,49.073,4378.15
11/09/2008,237.059,104.879,160.05,42.015,77.008,75.619,43.636,4813.99
12/09/2008,235.646,104.907,159.427,42.046,76.218,75.814,42.896,4789.59
13/09/2008,233.44,104.919,159.182,44.175,74.258,76.999,40.874,4925.62
14/09/2008,231.425,104.937,158.708,44.796,72.717,78.375,39.331,4963.82
15/09/2008,229.797,104.954,158.086,45.066,71.711,79.337,38.339,4970.38
16/09/2008,227.754,104.957,157.473,45.631,70.281,79.974,36.897,4982.77
17/09/2008,225.018,104.965,156.716,46.475,68.302,80.2,34.906,5003.65
18/09/2008,230.301,104.866,153.913,37.452,76.388,75.566,43.623,3949.42
19/09/2008,227.719,104.877,153.662,39.334,74.057,77.587,41.135,4169.6
20/09/2008,216.817,104.989,156.297,52.352,60.52,80.738,26.968,5353.53
21/09/2008,220.149,104.917,154.839,45.469,65.31,75.371,31.796,4520.52
22/09/2008,217.294,104.955,154.501,47.816,62.792,78.299,30.065,4689.72
23/09/2008,213.475,105.006,154.549,52.37,58.926,79.343,25.556,5290.92
24/09/2008,211.802,105.021,153.946,53.29,57.855,80.584,24.487,5336.6
25/09/2008,212.718,105.003,152.563,50.206,60.155,80.221,26.959,4880.31
26/09/2008,209.007,105.025,153.315,55.55,55.692,80.319,22.278,5453.84
27/09/2008,211.5,105.01,152.559,51.465,58.941,77.152,25.777,4902.39
28/09/2008,209.36,105.027,152.612,53.96,56.748,78.514,23.476,5156.66
29/09/2008,207.532,105.032,152.633,55.81,54.899,78.697,21.531,5410.73
30/09/2008,214.276,104.889,152.422,44.256,61.854,72.755,29.137,3282.19
01/10/2008,207.694,105.03,151.937,54.301,55.757,79.983,22.456,5319.83
02/10/2008,207.085,105.031,151.552,54.209,55.532,79.6,22.263,5569.54
03/10/2008,206.512,105.03,151.25,54.301,55.263,78.578,22.027,5281.92
04/10/2008,207.673,105.019,150.346,51.403,57.327,78.234,24.136,4954.21
05/10/2008,205.596,105.025,150.813,54.753,54.783,78.942,21.452,5419.56
06/10/2008,215.263,104.938,148.705,38.503,66.558,74.519,34.418,3485.34
07/10/2008,212.017,104.979,148.499,43.305,63.517,75.382,30.846,4222.5
08/10/2008,211.897,104.982,148.26,43.266,63.637,78.194,30.975,4208.55
09/10/2008,211.818,104.981,148.182,43.296,63.636,78.623,30.988,4201.86
10/10/2008,211.814,104.986,148.185,43.256,63.629,77.768,30.975,4206.55
11/10/2008,211.866,104.989,148.175,43.319,63.692,77.896,30.998,4231.88
12/10/2008,212.111,104.995,148.184,42.796,63.927,78.423,31.319,4195.09
13/10/2008,211.938,104.991,148.175,42.804,63.762,76.868,31.153,4208.9
14/10/2008,212.023,104.996,148.087,42.808,63.935,78.239,31.328,4210.83
15/10/2008,212.144,104.994,147.973,42.67,64.171,78.687,31.57,4187.33
16/10/2008,211.969,104.992,147.868,42.728,64.101,78.523,31.488,4194.08
17/10/2008,211.836,104.991,147.799,42.756,64.037,78.815,31.427,4206.38
18/10/2008,209.825,105.034,149.011,46.566,60.814,78.674,27.907,4753.55
19/10/2008,210.606,105.053,149.063,45.429,61.542,78.503,28.724,4440.16
20/10/2008,211.097,105.065,149.233,45.286,61.865,77.78,29.039,4429.04
21/10/2008,211.643,105.083,149.494,45.268,62.15,77.973,29.321,4435.34
22/10/2008,212.131,105.098,149.656,45.253,62.475,78.407,29.651,4613.81
23/10/2008,211.751,105.094,149.68,45.78,62.07,77.407,29.245,4652.96
24/10/2008,211.579,105.103,149.81,45.95,61.769,77.642,28.953,4675.7
25/10/2008,212.555,105.109,149.76,45.003,62.794,77.134,30.056,4633.71
26/10/2008,214.028,105.11,149.515,43.487,64.512,78.139,31.849,4608.81
27/10/2008,214.207,105.102,149.362,43.707,64.845,78.521,32.126,4429.46
28/10/2008,209.145,105.145,151.724,52.525,57.421,78.953,24.18,5123.01
29/10/2008,211.473,105.157,152.195,50.582,59.278,78.25,26.097,4793.27
30/10/2008,207.397,105.17,152.787,57.139,54.609,80.26,21.219,5460.78
31/10/2008,206.566,105.174,152.38,57.325,54.186,80.19,20.836,5463.11
01/11/2008,211.143,105.158,152.071,50.59,59.071,78.519,25.822,4645.38
02/11/2008,218.989,104.999,151.86,38.057,67.129,73.574,34.479,3731.52
03/11/2008,221.1,105.113,148.538,36.83,72.562,78.875,40.495,3475.8
04/11/2008,221.308,105.101,148.67,36.761,72.638,76.775,40.414,3460.92
05/11/2008,221.063,105.083,148.377,36.804,72.686,78.113,40.463,3458.27
06/11/2008,221.624,105.088,148.508,36.484,73.116,75.013,40.888,3403.18
07/11/2008,223.786,105.076,148.305,34.819,75.481,73.321,43.511,3310.61
08/11/2008,223.876,105.075,148.357,35.066,75.519,75.004,43.485,3354.77
09/11/2008,223.258,105.088,148.592,35.936,74.667,76.077,42.498,3502.6
10/11/2008,223.779,105.093,148.644,35.705,75.135,76.471,42.991,3464.41
11/11/2008,223.836,105.096,148.928,35.809,74.907,74.608,42.761,3492.99
12/11/2008,224.024,105.1,148.831,35.789,75.193,77.588,43.024,3482.0
13/11/2008,224.324,105.104,148.909,35.822,75.414,77.746,43.256,3499.81
14/11/2008,224.555,105.109,149.009,35.73,75.547,76.694,43.383,3498.89
15/11/2008,224.805,105.113,149.098,35.757,75.707,76.987,43.53,3508.48
16/11/2008,225.002,105.114,149.082,35.768,75.92,77.666,43.755,3501.06
17/11/2008,225.027,105.115,149.354,35.8,75.673,74.953,43.525,3526.54
18/11/2008,224.526,105.086,148.795,35.688,75.731,76.854,43.573,3481.63
19/11/2008,223.811,105.07,148.546,35.626,75.265,77.664,43.124,3462.83
20/11/2008,223.997,105.093,148.798,35.808,75.199,77.201,42.953,3489.61
21/11/2008,224.185,105.103,149.002,36.424,75.184,76.659,41.925,3424.06
22/11/2008,224.688,105.123,149.451,36.3,75.237,76.616,42.053,3580.99
23/11/2008,226.23,105.112,149.578,34.85,76.652,73.127,43.447,3234.99
24/11/2008,225.771,105.115,149.422,35.326,76.349,76.091,43.793,3378.11
25/11/2008,224.749,105.135,149.634,36.556,75.115,77.33,42.348,3661.02
26/11/2008,224.061,105.161,150.28,37.324,73.782,75.552,40.85,3853.4
27/11/2008,224.563,105.17,150.218,37.269,74.346,76.349,41.414,3833.27
28/11/2008,236.436,105.079,150.827,25.049,85.609,68.562,52.678,1780.74
29/11/2008,230.205,105.121,150.856,33.909,79.35,74.951,46.566,3100.68
30/11/2008,227.678,105.186,151.071,36.817,76.607,77.347,43.708,3811.05
01/12/2008,230.054,105.18,151.351,34.586,78.703,75.344,45.88,3333.32
02/12/2008,232.064,105.168,151.57,33.642,80.494,73.832,47.864,3203.92
03/12/2008,230.671,105.193,151.254,35.816,79.417,78.175,46.648,3625.36
04/12/2008,231.254,105.197,151.513,35.793,79.741,75.381,46.975,3571.27
05/12/2008,231.746,105.202,151.806,35.787,79.94,75.0,47.161,3629.64
06/12/2008,232.245,105.208,151.953,35.734,80.292,77.046,47.486,3663.25
07/12/2008,232.747,105.215,152.105,35.767,80.641,77.525,47.811,3687.91
08/12/2008,233.325,105.216,152.245,35.729,81.08,77.651,48.267,3652.2
09/12/2008,233.236,105.215,152.495,35.813,80.741,75.808,47.909,3687.36
10/12/2008,233.769,105.22,152.511,35.776,81.258,77.447,48.448,3685.38
11/12/2008,234.821,105.215,152.585,35.321,82.236,75.958,49.542,3526.36
12/12/2008,234.474,105.218,152.935,35.807,81.539,74.27,48.742,3679.89
13/12/2008,234.914,105.23,153.417,35.826,81.497,70.215,48.659,3712.64
14/12/2008,235.534,105.235,153.673,35.786,81.861,70.353,49.037,3720.13
15/12/2008,236.253,105.238,153.745,35.671,82.508,74.202,49.718,3676.11
16/12/2008,237.418,105.236,153.842,35.183,83.576,74.404,50.847,3604.86
17/12/2008,238.39,105.235,154.026,34.731,84.364,74.008,51.688,3548.88
18/12/2008,238.923,105.239,154.222,34.993,84.701,76.279,51.881,3622.37
19/12/2008,239.779,105.243,154.501,34.886,85.278,76.539,52.493,3608.76
20/12/2008,240.992,105.235,154.594,34.314,86.398,76.88,53.676,3524.44
21/12/2008,242.066,105.233,154.802,33.948,87.264,76.456,54.586,3492.51
22/12/2008,242.88,105.232,155.01,33.787,87.87,77.918,55.174,3478.92
23/12/2008,243.608,105.233,155.472,33.689,88.136,76.287,55.503,3473.27
24/12/2008,244.113,105.238,155.834,33.782,88.279,75.981,55.605,3494.08
25/12/2008,244.927,105.237,155.95,33.769,88.977,77.356,56.332,3484.95
26/12/2008,245.577,105.241,156.159,33.809,89.418,77.968,56.784,3499.21
27/12/2008,246.166,105.246,156.358,33.086,89.809,78.884,57.149,3422.04
28/12/2008,246.88,105.251,156.673,33.763,90.207,77.427,57.543,3494.29
29/12/2008,247.71,105.253,156.979,33.622,90.73,76.39,58.124,3476.12
30/12/2008,248.527,105.253,157.197,33.421,91.33,77.945,58.7,3451.08
31/12/2008,248.975,105.259,157.44,33.449,91.535,78.831,58.872,3468.76
01/01/2009,249.415,105.262,157.806,33.439,91.608,77.075,58.971,3478.64
02/01/2009,250.697,105.256,157.807,32.812,92.89,77.034,60.347,3363.8
03/01/2009,251.823,105.174,158.274,30.048,93.549,74.829,61.287,2216.9
04/01/2009,250.741,105.226,157.715,32.643,93.025,77.824,60.447,3347.77
05/01/2009,250.452,105.256,158.144,33.328,92.307,78.574,59.648,3495.8
06/01/2009,250.786,104.938,157.756,31.611,93.03,74.04,60.27,2649.25
07/01/2009,250.387,104.809,157.858,32.371,93.354,75.487,60.698,3309.88
08/01/2009,249.987,104.681,157.96,30.45,95.858,74.083,63.581,3054.02
09/01/2009,249.588,104.552,158.062,28.121,98.477,72.647,66.201,2627.22
10/01/2009,249.188,104.424,158.164,31.52,95.67,74.347,63.247,3259.45
11/01/2009,248.789,104.295,158.266,32.305,94.565,73.111,62.013,3360.25
12/01/2009,248.39,104.166,158.368,34.303,92.04,76.579,59.104,3622.1
13/01/2009,247.99,104.038,158.469,36.256,89.521,79.393,56.288,3920.6
14/01/2009,251.528,105.361,160.871,35.825,90.657,80.37,57.424,3827.53
15/01/2009,252.119,105.369,161.135,35.81,90.984,76.945,57.828,4449.03
16/01/2009,252.549,105.378,161.383,35.817,91.166,76.751,58.008,4595.56
17/01/2009,253.671,105.381,161.457,34.986,92.214,76.981,59.036,4386.22
18/01/2009,253.671,105.391,161.92,35.676,91.752,76.429,58.57,4580.12
19/01/2009,253.959,105.396,161.997,35.776,91.962,76.469,58.742,4621.01
20/01/2009,254.364,105.393,162.067,35.799,92.297,78.362,59.067,4634.87
21/01/2009,255.125,105.378,162.32,34.215,92.805,78.434,59.564,4162.58
22/01/2009,256.608,105.349,162.185,33.565,94.423,74.054,62.053,3996.66
23/01/2009,255.891,105.387,162.392,35.24,93.499,76.975,60.68,4479.0
24/01/2009,256.368,105.388,162.493,35.183,93.876,77.973,60.748,4459.69
25/01/2009,256.7,105.389,162.683,35.289,94.017,77.78,60.92,4519.77
26/01/2009,257.021,105.393,163.112,35.332,93.909,75.642,60.794,4522.95
27/01/2009,257.518,105.393,163.093,35.323,94.425,77.901,61.291,4526.29
28/01/2009,258.437,105.387,163.464,33.748,94.973,79.852,61.92,2486.86
29/01/2009,265.125,104.809,163.907,26.465,101.217,60.577,69.651,559.58
30/01/2009,257.442,105.339,163.295,35.299,94.148,73.616,61.05,4535.43
31/01/2009,257.699,105.364,163.215,35.299,94.484,74.276,61.385,4523.83
01/02/2009,259.897,105.214,163.677,31.738,96.22,71.868,63.386,2266.89
02/02/2009,258.129,105.351,163.35,35.325,94.779,78.463,61.688,4534.47
03/02/2009,258.48,105.363,163.438,35.284,95.042,78.669,61.932,4536.97
04/02/2009,270.121,104.636,165.402,19.548,104.719,54.997,72.992,384.26
05/02/2009,259.163,105.311,163.659,34.816,95.504,78.285,62.419,4417.62
06/02/2009,258.765,105.353,163.691,35.233,95.074,78.949,61.938,4501.76
07/02/2009,259.323,105.368,164.316,34.846,95.007,76.402,61.995,4501.18
08/02/2009,260.198,105.372,164.382,35.184,95.816,78.98,62.637,4669.97
09/02/2009,263.448,105.322,163.824,32.373,99.625,78.878,66.778,3723.99
10/02/2009,260.976,105.358,164.222,34.797,96.754,80.422,64.469,4416.34
11/02/2009,261.481,105.365,164.352,34.698,97.129,80.237,65.805,4379.88
12/02/2009,261.772,105.371,164.563,34.692,97.209,80.335,64.107,4440.7
13/02/2009,263.817,105.313,164.737,32.256,99.08,78.187,66.376,3573.58
14/02/2009,261.775,105.386,165.298,35.232,96.477,78.016,63.407,4618.77
15/02/2009,262.417,105.388,165.231,34.879,97.185,79.679,64.468,4493.98
16/02/2009,263.528,105.36,165.5,33.597,98.028,79.292,65.067,3907.94
17/02/2009,263.049,105.396,165.641,34.959,97.408,79.258,64.208,4526.91
18/02/2009,263.497,105.401,165.919,34.818,97.577,78.528,64.438,4515.1
19/02/2009,263.909,105.407,166.193,34.802,97.717,77.436,64.598,4518.34
20/02/2009,264.386,105.411,166.214,34.779,98.172,78.44,64.987,4509.07
21/02/2009,270.425,105.3,165.432,29.048,104.993,75.23,72.3,2905.92
22/02/2009,266.709,105.396,166.274,34.055,100.436,80.122,67.33,4319.02
23/02/2009,266.667,105.411,166.513,34.395,100.154,81.01,66.986,4417.66
24/02/2009,266.974,105.417,166.627,34.307,100.347,80.955,67.194,4367.33
25/02/2009,269.706,105.358,166.926,31.055,102.78,76.545,69.955,3226.61
26/02/2009,268.343,105.428,167.285,34.31,101.058,80.42,67.846,4411.9
27/02/2009,268.748,105.438,167.402,34.307,101.346,81.079,68.187,4376.91
28/02/2009,269.144,105.443,167.851,34.281,101.293,78.118,68.16,4417.91
01/03/2009,269.56,105.45,167.928,34.317,101.632,79.097,68.479,4396.74
02/03/2009,270.002,105.455,168.025,34.237,101.977,80.543,68.792,4381.09
03/03/2009,270.291,105.464,168.305,33.576,101.986,79.555,68.801,4339.13
04/03/2009,270.432,105.464,168.441,34.33,101.992,77.756,68.807,4421.77
05/03/2009,275.315,105.253,168.387,29.522,106.928,72.135,74.058,1974.22
06/03/2009,276.238,105.322,167.739,29.129,108.499,76.69,75.922,2987.89
07/03/2009,281.305,105.221,166.243,24.944,115.061,73.903,82.89,2208.96
08/03/2009,281.636,105.222,166.452,24.157,115.184,73.081,82.984,969.01
09/03/2009,289.897,103.428,176.278,4.906,113.619,20.965,75.955,109.63
10/03/2009,277.611,105.216,166.871,30.5,110.741,66.183,79.181,2623.97
11/03/2009,273.077,105.142,166.635,25.032,106.442,64.777,73.728,1185.05
12/03/2009,264.295,105.463,166.49,33.23,97.805,78.17,65.304,3349.12
13/03/2009,261.688,105.129,168.682,33.239,93.005,65.514,60.235,1512.65
14/03/2009,255.083,105.556,167.407,39.199,87.676,80.677,54.83,4690.25
15/03/2009,251.118,105.582,168.439,42.199,82.679,82.866,49.474,5220.21
16/03/2009,245.335,105.614,170.41,47.254,74.925,81.381,41.261,5534.9
17/03/2009,244.673,105.595,169.331,46.479,75.341,83.265,41.778,5634.32
18/03/2009,254.087,105.432,164.332,36.327,89.756,80.524,56.879,4546.78
19/03/2009,255.198,105.324,162.673,33.801,92.525,79.312,59.788,3976.45
20/03/2009,249.808,104.825,161.58,36.012,88.228,79.336,55.466,4539.29
21/03/2009,249.007,105.288,161.427,36.224,87.58,80.99,54.705,4427.82
22/03/2009,246.739,105.259,160.767,36.462,85.972,80.584,53.068,4433.69
23/03/2009,244.065,105.24,160.195,37.101,83.87,80.392,50.87,4490.24
24/03/2009,242.677,105.202,159.257,36.768,83.42,79.942,50.539,4379.47
25/03/2009,244.296,105.172,158.487,30.83,85.809,76.521,53.25,505.63
26/03/2009,263.68,101.248,257.182,27.046,6.498,5.686,5.664,435.556
27/03/2009,264.028,100.698,257.443,23.262,6.585,5.984,6.163,365.482
28/03/2009,264.334,100.364,260.539,19.477,3.795,5.711,3.68,295.408
29/03/2009,178.249,67.218,140.65,15.693,37.599,3.836,37.522,225.334
30/03/2009,261.91,102.627,167.099,11.909,94.811,25.904,67.24,155.26
31/03/2009,247.088,105.027,158.984,33.814,88.105,74.816,55.591,3650.9
01/04/2009,246.19,105.087,158.468,33.746,87.722,76.913,55.34,3515.99
02/04/2009,244.24,105.106,158.485,35.101,85.755,78.127,53.213,3831.97
03/04/2009,241.566,105.143,158.641,36.764,82.925,78.758,50.129,4211.6
04/04/2009,142.195,62.097,59.93,36.916,82.266,79.017,49.444,4266.19
05/04/2009,134.163,56.681,81.859,36.068,81.859,78.89,49.168,3873.72
06/04/2009,126.131,51.265,99.978,35.675,81.709,19.688,0.204,3550.15
07/04/2009,118.098,45.848,118.098,35.283,81.56,7.756,0.495,3226.58
08/04/2009,238.779,104.855,157.369,34.89,81.411,71.641,48.93,2903.01
09/04/2009,156.705,68.81,74.242,32.957,82.463,71.992,50.464,2094.72
10/04/2009,152.381,67.258,86.931,21.543,86.931,73.892,54.352,50.65
11/04/2009,148.057,65.706,83.158,27.996,83.158,8.547,0.233,1056.985
12/04/2009,143.733,64.154,79.386,34.449,79.386,71.229,47.091,2063.32
13/04/2009,139.41,62.602,77.487,36.93,77.487,78.891,44.837,3941.13
14/04/2009,135.086,61.05,76.398,37.223,76.398,79.57,43.702,3975.77
15/04/2009,130.762,59.498,76.654,34.276,76.654,79.604,44.062,651.67
16/04/2009,126.438,57.946,49.455,33.94,76.983,70.601,44.687,2452.26
17/04/2009,227.887,105.02,154.018,38.049,73.869,78.305,41.108,4018.0
18/04/2009,230.897,104.82,155.605,33.485,75.292,72.279,42.903,1417.68
19/04/2009,238.392,103.942,157.564,24.177,80.827,49.8,49.867,217.49
20/04/2009,161.168,75.026,88.81,38.396,72.358,78.249,39.643,3990.32
21/04/2009,223.687,105.028,153.208,39.182,70.479,75.597,37.682,4074.51
22/04/2009,228.324,104.949,152.759,32.787,75.566,74.663,43.13,2868.86
23/04/2009,222.068,105.036,152.54,39.642,69.528,77.383,36.663,4074.46
24/04/2009,220.987,105.051,152.344,39.778,68.643,75.049,35.797,4092.66
25/04/2009,220.166,105.055,152.001,39.874,68.165,74.827,35.322,4090.03
26/04/2009,219.444,105.059,151.679,40.039,67.764,76.143,34.914,4103.63
27/04/2009,219.076,105.057,151.37,39.711,67.706,74.907,34.897,4054.31
28/04/2009,218.82,105.068,151.185,38.923,67.636,77.019,34.809,4021.8
29/04/2009,218.583,105.077,151.102,39.939,67.481,77.344,34.645,4052.58
30/04/2009,218.593,105.086,151.129,39.248,67.463,77.784,34.635,4035.73
01/05/2009,218.694,105.099,151.434,40.123,67.26,75.586,34.424,4081.53
02/05/2009,218.844,105.106,151.349,40.116,67.495,77.758,34.626,4066.61
03/05/2009,218.826,105.114,151.493,40.323,67.333,77.772,34.437,4081.26
04/05/2009,222.473,105.114,151.317,33.636,71.156,76.734,38.716,412.42
06/05/2009,224.94,104.8,153.136,35.915,71.804,70.197,39.755,3306.81
07/05/2009,222.983,105.064,152.163,37.937,70.82,75.995,37.979,3702.99
08/05/2009,221.786,105.105,152.49,39.515,69.296,75.535,36.453,4081.41
09/05/2009,223.103,105.107,152.444,38.56,70.659,76.079,37.943,3931.18
10/05/2009,221.837,105.134,152.807,40.155,69.031,78.949,36.076,4150.8
11/05/2009,131.509,62.529,63.539,41.256,67.97,80.123,34.854,4241.75
12/05/2009,221.38,105.172,153.225,41.283,68.155,80.51,35.035,4239.18
13/05/2009,221.816,105.183,153.442,41.257,68.373,80.646,35.24,4197.86
14/05/2009,222.226,105.193,153.782,41.272,68.444,80.0,35.292,4211.25
15/05/2009,222.632,105.204,154.17,41.308,68.462,77.961,35.311,4233.1
16/05/2009,222.999,105.217,154.262,41.286,68.738,77.505,35.581,4237.94
17/05/2009,223.101,105.235,154.59,41.335,68.511,75.122,35.364,4244.23
18/05/2009,223.292,105.254,154.639,41.327,68.653,78.641,35.499,3759.11
19/05/2009,223.371,105.269,154.791,41.322,68.579,79.495,35.439,3967.32
20/05/2009,223.582,105.286,155.004,41.306,68.578,80.528,35.438,3972.97
21/05/2009,223.789,105.303,155.31,41.33,68.48,80.944,35.317,3994.95
22/05/2009,223.495,105.327,155.732,41.943,67.763,81.672,34.495,4063.22
23/05/2009,223.556,105.348,156.21,42.319,67.346,81.597,34.044,4123.37
24/05/2009,223.968,105.363,156.54,42.261,67.428,81.361,34.134,4136.45
25/05/2009,225.186,105.37,156.768,41.404,68.418,80.748,35.241,4030.16
26/05/2009,225.618,105.381,157.171,41.324,68.447,79.743,35.301,4024.79
27/05/2009,226.016,105.394,157.378,41.302,68.638,80.521,35.511,4028.53
28/05/2009,226.489,105.404,157.676,41.256,68.813,81.615,35.773,4023.55
29/05/2009,229.913,105.378,157.567,38.442,72.346,79.155,39.721,3653.89
30/05/2009,230.225,105.353,157.225,37.791,73.0,80.526,40.526,3496.61
31/05/2009,229.735,105.346,157.092,37.748,72.643,81.461,40.164,3479.8
01/06/2009,229.273,105.341,156.898,37.768,72.375,81.753,39.881,3442.3
02/06/2009,229.256,105.343,156.947,37.777,72.309,81.272,39.842,3413.78
03/06/2009,228.677,105.329,156.886,37.79,71.791,78.623,39.354,2994.6
04/06/2009,227.84,105.316,156.46,37.926,71.379,80.326,38.964,3352.53
05/06/2009,226.274,105.318,156.247,38.478,70.027,81.066,37.515,3369.57
06/06/2009,228.892,105.237,156.573,34.149,72.319,75.908,40.586,2702.0
07/06/2009,224.913,105.291,155.848,38.718,69.065,79.585,36.364,3439.9
08/06/2009,222.903,105.31,155.499,39.785,67.404,81.259,34.661,3497.78
09/06/2009,222.306,105.305,155.073,39.512,67.233,81.451,34.562,3443.71
10/06/2009,221.035,105.304,154.724,39.803,66.311,81.472,33.692,3451.46
11/06/2009,222.936,105.24,154.682,35.771,68.254,78.758,35.745,3108.44
12/06/2009,219.34,105.297,154.352,40.273,64.988,81.229,32.376,3768.1
13/06/2009,221.262,105.248,154.19,36.846,67.072,79.438,34.59,3178.3
14/06/2009,218.774,105.297,154.206,38.647,64.568,81.301,31.962,1760.34